LJMBLJPZ

Guest
Details From LJMB - MARIBOR
To LJPZ - PORTOROZ
Flight Number -
Tags generated
Created
Modified
Stats Distance 106 nm / 195 km
Max Altitude 0 ft / 0 m
Waypoints 3
Social Downloads 1
Likes 0
Share VATSIM

Download

Looking for another format? Having issues loading an existing format? Contact us
Advertisement - Login to hide

Notes

Basic altitude profile: - Ascent Rate: 700ft/min - Ascent Speed: 110kts - Cruise Altitude: 90ft - Cruise Speed: 150kts - Descent Rate: 1000ft/min - Descent Speed: 100kts

Route

LJMB VALLU LJPZ

ID Type Via Altitude Latitude Longitude Leg Dist Tot Dist Heading (true) Name
O LJMB APT - 0 ft / 0 m 46.48062˚ 15.68602˚ - 0 nm - MARIBOR
VALLU FIX - 0 ft / 0 m 46.29159˚ 15.33632˚ 18 nm 18 nm 232° / 232° -
O LJPZ APT - 0 ft / 0 m 45.47244˚ 13.61568˚ 87 nm 105 nm 236° / 235° PORTOROZ

Altitude Profile

Advertisement - Login to hide

LJMB

Details ICAO LJMB (MBX)
Name MARIBOR
Region Slovenia
Timezone Europe/Ljubljana (UTC+1.0)
Stats Elevation 876 ft / 267 m (AMSL)
Location 46.480625° 15.686020°
Runways 2
Magnetic Variation 3.936° E

METAR

LJMB 150830Z 06005KT 030V100 9999 FEW023 BKN051 09/05 Q0998 R99/19//95

Decode

TAF

TAF LJMB 150800Z 1509/1609 18005KT 9999 SCT030 SCT060 TEMPO 1509/1512 21010G20KT TEMPO 1509/1515 5000 -RA BR BKN030 OVC050 BECMG 1512/1515 01005KT BECMG 1515/1518 3500 RA BR BKN020 OVC030 BECMG 1518/1521 2500 SN BKN010 OVC020 BECMG 1600/1603 4500 -SN BR SCT010 OVC020 BECMG 1603/1606 9999 NSW FEW010 BKN080 TEMPO 1606/1609 18004KT

Decode

Departure Runways

ID Width Length Bearing (true) Bearing (mag) Surface Threshold Offset Overrun Length
15 148 ft / 45 m 8,160 ft / 2,487 m 146.19° 142.25° Asphalt 0 ft / 0 m 0 ft / 0 m
15L 197 ft / 60 m 3,941 ft / 1,201 m 146.13° 142.19° Grass 0 ft / 0 m 0 ft / 0 m
33 148 ft / 45 m 8,160 ft / 2,487 m 326.20° 322.26° Asphalt 0 ft / 0 m 0 ft / 0 m
33R 197 ft / 60 m 3,941 ft / 1,201 m 326.14° 322.20° Grass 0 ft / 0 m 0 ft / 0 m

LJPZ

Details ICAO LJPZ (POW)
Name PORTOROZ
Region Slovenia
Timezone Europe/Ljubljana (UTC+1.0)
Stats Elevation 7 ft / 2 m (AMSL)
Location 45.472445° 13.615681°
Runways 1
Magnetic Variation 3.444° E

METAR

LJPZ 150830Z 16007KT 100V240 9999 FEW055 BKN075 14/08 Q1000

Decode

TAF

Not found

Destination Runways

ID Width Length Bearing (true) Bearing (mag) Surface Threshold Offset Overrun Length
15 98 ft / 30 m 3,939 ft / 1,201 m 151.28° 147.84° Asphalt 0 ft / 0 m 0 ft / 0 m
33 98 ft / 30 m 3,939 ft / 1,201 m 331.29° 327.85° Asphalt 751 ft / 229 m 0 ft / 0 m

Popular Alternatives